When you browse on this site, cookies collect data to enhance your experience and personalize the content and advertising you see.
Visit our Privacy Policy to learn more. By continuing to use the site, you agree to this use of cookies and data.
  • en France
  • Liste des pays
  • À 7 jours
  • Température de l'eau
  • Carte satellitaire
  • Carte météo
  • Widgets météo
  • user-avatar
    Se connecter

    Météo par heure à Orange Walk

    Ce jour, 16 Février, Samedi

    Heure Température Précipitation Vent Pression Humidité
    00:00 +21°C° 0 mm 1 m/s 758 mmHg 88%
    01:00 +21°C° 0 mm 1 m/s 757 mmHg 89%
    02:00 +21°C° 0 mm 1 m/s 757 mmHg 90%
    03:00 +21°C° 0 mm 1 m/s 757 mmHg 91%
    04:00 +19°C° 0 mm 0 m/s 756 mmHg 92%
    05:00 +19°C° 0 mm 0 m/s 756 mmHg 93%
    06:00 +19°C° 0 mm 0 m/s 756 mmHg 94%
    07:00 +23°C° 0 mm 1 m/s 757 mmHg 85%
    08:00 +26°C° 0 mm 2 m/s 757 mmHg 76%
    09:00 +28°C° 0 mm 2 m/s 757 mmHg 68%
    10:00 +29°C° 0 mm 2 m/s 757 mmHg 63%
    11:00 +31°C° 0 mm 2 m/s 757 mmHg 58%
    12:00 +33°C° 0 mm 3 m/s 756 mmHg 53%
    13:00 +33°C° 0 mm 3 m/s 756 mmHg 53%
    14:00 +33°C° 0 mm 3 m/s 755 mmHg 54%
    15:00 +33°C° 0 mm 3 m/s 754 mmHg 55%
    16:00 +30°C° 0 mm 3 m/s 754 mmHg 64%
    17:00 +28°C° 0 mm 2 m/s 754 mmHg 73%
    18:00 +26°C° 0 mm 2 m/s 754 mmHg 82%
    19:00 +25°C° 0 mm 2 m/s 755 mmHg 87%
    20:00 +24°C° 0 mm 1 m/s 755 mmHg 92%
    21:00 +23°C° 0 mm 1 m/s 755 mmHg 97%
    22:00 +23°C° 0 mm 1 m/s 755 mmHg 97%
    23:00 +23°C° 0 mm 1 m/s 755 mmHg 97%

    Demain, 17 Février, Dimanche

    Heure Température Précipitation Vent Pression Humidité
    00:00 +23°C° 0 mm 1 m/s 755 mmHg 97%
    01:00 +23°C° 0 mm 1 m/s 755 mmHg 97%
    02:00 +23°C° 0 mm 1 m/s 755 mmHg 97%
    03:00 +21°C° 0 mm 0 m/s 755 mmHg 98%
    04:00 +23°C° 0 mm 1 m/s 755 mmHg 98%
    05:00 +24°C° 0 mm 1 m/s 755 mmHg 98%
    06:00 +24°C° 0 mm 1 m/s 755 mmHg 98%
    07:00 +26°C° 0 mm 1 m/s 756 mmHg 90%
    08:00 +28°C° 0 mm 2 m/s 756 mmHg 82%
    09:00 +30°C° 0 mm 3 m/s 757 mmHg 74%
    10:00 +31°C° 0 mm 3 m/s 757 mmHg 68%
    11:00 +34°C° 0 mm 3 m/s 756 mmHg 63%
    12:00 +35°C° 0 mm 3 m/s 756 mmHg 58%
    13:00 +35°C° 0 mm 3 m/s 756 mmHg 58%
    14:00 +35°C° 0 mm 3 m/s 755 mmHg 59%
    15:00 +35°C° 0 mm 3 m/s 754 mmHg 59%
    16:00 +33°C° 0 mm 3 m/s 754 mmHg 67%
    17:00 +30°C° 0 mm 3 m/s 754 mmHg 75%
    18:00 +28°C° 0 mm 2 m/s 754 mmHg 83%
    19:00 +27°C° 0 mm 2 m/s 755 mmHg 87%
    20:00 +26°C° 0 mm 2 m/s 755 mmHg 91%
    21:00 +25°C° 0 mm 1 m/s 756 mmHg 96%
    22:00 +25°C° 0 mm 1 m/s 756 mmHg 96%
    23:00 +25°C° 0 mm 1 m/s 756 mmHg 96%

    Après-demain, 18 Février, Lundi

    Heure Température Précipitation Vent Pression Humidité
    00:00 +25°C° 0 mm 1 m/s 756 mmHg 97%
    01:00 +25°C° 0 mm 1 m/s 756 mmHg 97%
    02:00 +25°C° 0 mm 1 m/s 755 mmHg 97%
    03:00 +25°C° 0 mm 1 m/s 755 mmHg 97%
    04:00 +26°C° 0 mm 1 m/s 755 mmHg 97%
    05:00 +26°C° 0 mm 1 m/s 756 mmHg 97%
    06:00 +26°C° 0 mm 1 m/s 756 mmHg 97%
    07:00 +28°C° 0 mm 2 m/s 757 mmHg 89%
    08:00 +29°C° 0 mm 2 m/s 757 mmHg 81%
    09:00 +31°C° 0 mm 3 m/s 758 mmHg 73%
    10:00 +33°C° 0 mm 3 m/s 758 mmHg 67%
    11:00 +35°C° 0 mm 3 m/s 758 mmHg 62%
    12:00 +36°C° 0 mm 3 m/s 758 mmHg 56%
    13:00 +36°C° 0 mm 3 m/s 757 mmHg 56%
    14:00 +35°C° 0 mm 3 m/s 756 mmHg 57%
    15:00 +35°C° 0 mm 3 m/s 756 mmHg 57%
    16:00 +33°C° 0 mm 3 m/s 756 mmHg 64%
    17:00 +30°C° 0 mm 3 m/s 756 mmHg 71%
    18:00 +28°C° 0 mm 2 m/s 756 mmHg 79%
    19:00 +28°C° 0 mm 2 m/s 757 mmHg 84%
    20:00 +27°C° 0 mm 2 m/s 757 mmHg 89%
    21:00 +26°C° 0 mm 2 m/s 758 mmHg 93%
    22:00 +26°C° 0 mm 2 m/s 758 mmHg 94%
    23:00 +26°C° 0 mm 2 m/s 758 mmHg 94%

    19 Février, Mardi

    Heure Température Précipitation Vent Pression Humidité
    00:00 +26°C° 0 mm 2 m/s 758 mmHg 95%
    01:00 +26°C° 0 mm 2 m/s 757 mmHg 93%
    02:00 +27°C° 0 mm 2 m/s 757 mmHg 92%
    03:00 +27°C° 0 mm 2 m/s 757 mmHg 90%
    04:00 +27°C° 0 mm 2 m/s 757 mmHg 90%
    05:00 +27°C° 0 mm 2 m/s 757 mmHg 90%
    06:00 +27°C° 0 mm 2 m/s 757 mmHg 89%
    07:00 +28°C° 0 mm 3 m/s 758 mmHg 82%
    08:00 +29°C° 0 mm 4 m/s 758 mmHg 74%
    09:00 +32°C° 0 mm 4 m/s 759 mmHg 67%
    10:00 +32°C° 0 mm 5 m/s 759 mmHg 62%
    11:00 +33°C° 0 mm 5 m/s 758 mmHg 57%
    12:00 +34°C° 0 mm 5 m/s 758 mmHg 52%
    13:00 +34°C° 0 mm 5 m/s 757 mmHg 52%
    14:00 +34°C° 0 mm 5 m/s 757 mmHg 52%
    15:00 +34°C° 0 mm 5 m/s 756 mmHg 52%
    16:00 +32°C° 0 mm 4 m/s 756 mmHg 61%
    17:00 +29°C° 0 mm 3 m/s 756 mmHg 69%
    18:00 +28°C° 0 mm 3 m/s 756 mmHg 77%
    19:00 +27°C° 0 mm 2 m/s 757 mmHg 82%
    20:00 +27°C° 0 mm 2 m/s 757 mmHg 86%
    21:00 +26°C° 0 mm 2 m/s 757 mmHg 90%
    22:00 +26°C° 0 mm 2 m/s 757 mmHg 89%
    23:00 +26°C° 0 mm 2 m/s 757 mmHg 87%

    20 Février, Mercredi

    Heure Température Précipitation Vent Pression Humidité
    00:00 +26°C° 0 mm 2 m/s 757 mmHg 86%
    01:00 +26°C° 0 mm 2 m/s 756 mmHg 86%
    02:00 +26°C° 0 mm 2 m/s 756 mmHg 85%
    03:00 +26°C° 0 mm 3 m/s 756 mmHg 84%
    04:00 +26°C° 0 mm 3 m/s 756 mmHg 83%
    05:00 +26°C° 0 mm 3 m/s 756 mmHg 81%
    06:00 +26°C° 0 mm 3 m/s 756 mmHg 79%
    07:00 +28°C° 0 mm 3 m/s 756 mmHg 73%
    08:00 +29°C° 0 mm 4 m/s 757 mmHg 67%
    09:00 +30°C° 0 mm 5 m/s 757 mmHg 61%
    10:00 +32°C° 0 mm 5 m/s 757 mmHg 56%
    11:00 +33°C° 0 mm 5 m/s 756 mmHg 50%
    12:00 +34°C° 0 mm 5 m/s 756 mmHg 45%
    13:00 +33°C° 0 mm 4 m/s 755 mmHg 45%
    14:00 +33°C° 0 mm 4 m/s 754 mmHg 45%
    15:00 +33°C° 0 mm 4 m/s 754 mmHg 45%
    16:00 +30°C° 0 mm 3 m/s 754 mmHg 53%
    17:00 +28°C° 0 mm 3 m/s 754 mmHg 62%
    18:00 +27°C° 0 mm 2 m/s 754 mmHg 71%
    19:00 +26°C° 0 mm 2 m/s 755 mmHg 76%
    20:00 +25°C° 0 mm 2 m/s 755 mmHg 81%
    21:00 +25°C° 0 mm 2 m/s 756 mmHg 86%
    22:00 +25°C° 0 mm 2 m/s 755 mmHg 88%
    23:00 +25°C° 0 mm 2 m/s 755 mmHg 89%

    21 Février, Jeudi

    Heure Température Précipitation Vent Pression Humidité
    00:00 +25°C° 0 mm 2 m/s 755 mmHg 90%
    01:00 +26°C° 0 mm 2 m/s 755 mmHg 90%
    02:00 +26°C° 0 mm 2 m/s 755 mmHg 90%
    03:00 +26°C° 0 mm 2 m/s 754 mmHg 89%
    04:00 +26°C° 0 mm 2 m/s 755 mmHg 89%
    05:00 +26°C° 0 mm 2 m/s 755 mmHg 89%
    06:00 +26°C° 0 mm 2 m/s 755 mmHg 88%
    07:00 +28°C° 0 mm 3 m/s 756 mmHg 80%
    08:00 +29°C° 0 mm 4 m/s 757 mmHg 72%
    09:00 +32°C° 0 mm 4 m/s 757 mmHg 63%
    10:00 +33°C° 0 mm 4 m/s 757 mmHg 59%
    11:00 +34°C° 0 mm 4 m/s 756 mmHg 55%
    12:00 +35°C° 0 mm 4 m/s 756 mmHg 51%
    13:00 +34°C° 0 mm 4 m/s 755 mmHg 52%
    14:00 +34°C° 0 mm 4 m/s 755 mmHg 52%
    15:00 +34°C° 0 mm 4 m/s 754 mmHg 52%
    16:00 +31°C° 0 mm 3 m/s 754 mmHg 59%
    17:00 +29°C° 0 mm 3 m/s 755 mmHg 67%
    18:00 +28°C° 0 mm 2 m/s 755 mmHg 74%
    19:00 +27°C° 0 mm 2 m/s 755 mmHg 79%
    20:00 +26°C° 0 mm 2 m/s 756 mmHg 84%
    21:00 +25°C° 0 mm 2 m/s 757 mmHg 89%
    22:00 +25°C° 0 mm 2 m/s 757 mmHg 90%
    23:00 +25°C° 0 mm 2 m/s 756 mmHg 91%
    Voir plus